Weather History for Auburn, IN

Change the Weather History Date:

Friday, July 19, 2013

  Actual Average (KFWA) Record (KFWA)
Temperature  
Mean Temperature 83 °F 74 °F  
Max Temperature 91 °F 84 °F 101 °F (1930)
Min Temperature 75 °F 63 °F 48 °F (1910)
Degree Days  
Heating Degree Days 0 0  
Month to date heating degree days 0  
Since 1 June heating degree days 29  
Since 1 July heating degree days 0  
Cooling Degree Days 18 9  
Month to date cooling degree days 171  
Year to date cooling degree days 410  
Since 1 June cooling degree days 353  
Growing Degree Days 33 (Base 50)    
Moisture  
Dew Point 70 °F    
Average Humidity 64    
Maximum Humidity 83    
Minimum Humidity 49    
Precipitation  
Precipitation 0.00 in 0.13 in 2.29 in (1963)
Month to date precipitation 2.63  
Year to date precipitation 21.59  
Snow  
Snow 0.00 in 0.00 in 0.00 in (2002)
Month to date snowfall 0.0  
Since 1 June snowfall 0.0  
Since 1 July snowfall 0.0  
Snow Depth -    
Sea Level Pressure  
Sea Level Pressure 29.93 in    
Wind  
Wind Speed 6 mph (SW)    
Max Wind Speed 14 mph    
Max Gust Speed 24 mph    
Visibility 10 miles    
Events      
T = Trace of Precipitation, MM = Missing Value Source: NWS Daily Summary

Daily Weather History Graph

Daily Weather History Graph

Search for Another Location

Airport:

Trip Planner

Search our weather history database for the weather conditions in past years. The results will help you decide how hot, cold, wet, or windy it might be!

Date:

Astronomy

Jul. 19, 2013 Rise Set
Actual Time 6:23 AM EDT 9:09 PM EDT
Civil Twilight 5:51 AM EDT 9:41 PM EDT
Nautical Twilight 5:10 AM EDT 10:21 PM EDT
Astronomical Twilight 4:23 AM EDT 11:08 PM EDT
Moon 6:10 PM EDT (7/19) 3:04 AM EDT (7/19)
Length of Visible Light 15h 50m
Length of Day
14h 45m
Waxing Gibbous, 86% of the Moon is Illuminated
Jul 19
Waxing Gibbous
Jul 22
Full
Jul 29
Last Quarter
Aug 6
New
Aug 14
First Quarter

Hourly Weather History & Observations

Time (EDT) Temp. Heat Index Dew Point Humidity Pressure Visibility Wind Dir Wind Speed Gust Speed Precip Events Conditions
12:15 AM 80.6 °F 83.9 °F 69.8 °F 70% 30.03 in 10.0 mi Calm Calm - N/A   Clear
12:35 AM 78.8 °F - 69.8 °F 74% 30.04 in 10.0 mi SW 3.5 mph - N/A   Clear
12:55 AM 78.8 °F - 69.8 °F 74% 30.04 in 10.0 mi SW 3.5 mph - N/A   Clear
1:15 AM 78.8 °F - 69.8 °F 74% 30.03 in 10.0 mi SW 3.5 mph - N/A   Clear
1:35 AM 78.8 °F - 69.8 °F 74% 30.03 in 10.0 mi SW 4.6 mph - N/A   Clear
1:55 AM 78.8 °F - 69.8 °F 74% 30.02 in 10.0 mi SW 5.8 mph - N/A   Clear
2:15 AM 78.8 °F - 69.8 °F 74% 30.02 in 10.0 mi SW 3.5 mph - N/A   Clear
2:35 AM 77.0 °F - 69.8 °F 78% 30.01 in 10.0 mi SW 3.5 mph - N/A   Clear
2:55 AM 77.0 °F - 69.8 °F 78% 30.00 in 10.0 mi SW 4.6 mph - N/A   Clear
3:15 AM 77.0 °F - 69.8 °F 78% 30.00 in 10.0 mi SW 3.5 mph - N/A   Clear
3:35 AM 77.0 °F - 69.8 °F 78% 29.99 in 10.0 mi Calm Calm - N/A   Clear
3:55 AM 77.0 °F - 69.8 °F 78% 29.99 in 10.0 mi SW 4.6 mph - N/A   Clear
4:15 AM 77.0 °F - 69.8 °F 78% 29.99 in 10.0 mi SW 4.6 mph - N/A   Clear
4:35 AM 77.0 °F - 69.8 °F 78% 29.98 in 10.0 mi SW 4.6 mph - N/A   Clear
4:55 AM 77.0 °F - 69.8 °F 78% 29.98 in 10.0 mi SW 3.5 mph - N/A   Clear
5:15 AM 77.0 °F - 69.8 °F 78% 29.98 in 10.0 mi Calm Calm - N/A   Clear
5:35 AM 77.0 °F - 69.8 °F 78% 29.98 in 10.0 mi Calm Calm - N/A   Clear
5:55 AM 77.0 °F - 69.8 °F 78% 29.98 in 10.0 mi SW 5.8 mph - N/A   Clear
6:15 AM 77.0 °F - 69.8 °F 78% 29.97 in 10.0 mi SW 3.5 mph - N/A   Clear
6:35 AM 75.2 °F - 69.8 °F 83% 29.98 in 10.0 mi SW 3.5 mph - N/A   Clear
7:15 AM 77.0 °F - 69.8 °F 78% 29.98 in 10.0 mi Calm Calm - N/A   Clear
7:35 AM 77.0 °F - 69.8 °F 78% 29.98 in 10.0 mi SW 5.8 mph - N/A   Clear
7:55 AM 78.8 °F - 69.8 °F 74% 29.99 in 10.0 mi SW 4.6 mph - N/A   Clear
8:15 AM 78.8 °F - 69.8 °F 74% 29.99 in 10.0 mi SW 4.6 mph - N/A   Clear
8:35 AM 78.8 °F - 69.8 °F 74% 29.98 in 10.0 mi SW 8.1 mph - N/A   Clear
8:55 AM 80.6 °F 83.9 °F 69.8 °F 70% 29.98 in 10.0 mi WSW 4.6 mph - N/A   Clear
9:15 AM 80.6 °F 84.6 °F 71.6 °F 74% 29.98 in 10.0 mi WSW 5.8 mph - N/A   Clear
9:35 AM 82.4 °F 87.2 °F 71.6 °F 70% 29.98 in 10.0 mi WSW 8.1 mph - N/A   Clear
9:55 AM 82.4 °F 87.2 °F 71.6 °F 70% 29.99 in 10.0 mi WSW 6.9 mph - N/A   Clear
10:15 AM 84.2 °F 89.6 °F 71.6 °F 66% 29.99 in 10.0 mi SW 8.1 mph - N/A   Clear
10:35 AM 86.0 °F 91.8 °F 71.6 °F 62% 29.98 in 10.0 mi SW 10.4 mph - N/A   Clear
10:55 AM 87.8 °F 93.8 °F 71.6 °F 58% 29.98 in 10.0 mi WSW 10.4 mph - N/A   Clear
11:15 AM 87.8 °F 92.6 °F 69.8 °F 55% 29.98 in 10.0 mi West 11.5 mph 18.4 mph N/A   Clear
11:35 AM 87.8 °F 93.8 °F 71.6 °F 58% 29.97 in 10.0 mi WSW 9.2 mph - N/A   Clear
11:55 AM 87.8 °F 92.6 °F 69.8 °F 55% 29.97 in 10.0 mi WSW 12.7 mph 20.7 mph N/A   Clear
12:15 PM 89.6 °F 94.7 °F 69.8 °F 52% 29.97 in 10.0 mi SW 11.5 mph 17.3 mph N/A   Clear
12:35 PM 89.6 °F 94.7 °F 69.8 °F 52% 29.96 in 10.0 mi WSW 10.4 mph 24.2 mph N/A   Clear
12:55 PM 89.6 °F 94.7 °F 69.8 °F 52% 29.95 in 10.0 mi WSW 9.2 mph - N/A   Scattered Clouds
1:15 PM 89.6 °F 96.2 °F 71.6 °F 55% 29.95 in 10.0 mi WSW 11.5 mph 18.4 mph N/A   Scattered Clouds
1:35 PM 89.6 °F 94.7 °F 69.8 °F 52% 29.93 in 10.0 mi SW 12.7 mph 20.7 mph N/A   Scattered Clouds
1:55 PM 89.6 °F 94.7 °F 69.8 °F 52% 29.93 in 10.0 mi SW 13.8 mph 20.7 mph N/A   Scattered Clouds
2:15 PM 89.6 °F 94.7 °F 69.8 °F 52% 29.92 in 10.0 mi SW 13.8 mph 21.9 mph N/A   Clear
2:35 PM 89.6 °F 94.7 °F 69.8 °F 52% 29.91 in 10.0 mi SW 11.5 mph 19.6 mph N/A   Scattered Clouds
2:55 PM 91.4 °F 96.8 °F 69.8 °F 49% 29.90 in 10.0 mi SW 10.4 mph 18.4 mph N/A   Scattered Clouds
3:15 PM 89.6 °F 94.7 °F 69.8 °F 52% 29.89 in 10.0 mi SW 13.8 mph 18.4 mph N/A   Scattered Clouds
3:35 PM 89.6 °F 94.7 °F 69.8 °F 52% 29.88 in 10.0 mi WSW 11.5 mph 18.4 mph N/A   Scattered Clouds
3:55 PM 91.4 °F 96.8 °F 69.8 °F 49% 29.87 in 10.0 mi SW 13.8 mph 19.6 mph N/A   Clear
4:15 PM 91.4 °F 96.8 °F 69.8 °F 49% 29.87 in 10.0 mi WSW 11.5 mph 18.4 mph N/A   Clear
4:35 PM 91.4 °F 96.8 °F 69.8 °F 49% 29.86 in 10.0 mi SW 10.4 mph 17.3 mph N/A   Clear
4:55 PM 89.6 °F 94.7 °F 69.8 °F 52% 29.85 in 10.0 mi SW 13.8 mph 18.4 mph N/A   Scattered Clouds
5:15 PM 91.4 °F 96.8 °F 69.8 °F 49% 29.85 in 10.0 mi SW 8.1 mph 19.6 mph N/A   Scattered Clouds
5:35 PM 89.6 °F 94.7 °F 69.8 °F 52% 29.85 in 10.0 mi SW 11.5 mph 17.3 mph N/A   Clear
5:55 PM 89.6 °F 94.7 °F 69.8 °F 52% 29.84 in 10.0 mi SW 10.4 mph 17.3 mph N/A   Clear
6:15 PM 89.6 °F 94.7 °F 69.8 °F 52% 29.83 in 10.0 mi SW 8.1 mph 21.9 mph N/A   Clear
6:35 PM 89.6 °F 94.7 °F 69.8 °F 52% 29.84 in 10.0 mi SW 10.4 mph 19.6 mph N/A   Clear
6:55 PM 89.6 °F 94.7 °F 69.8 °F 52% 29.83 in 10.0 mi SW 8.1 mph - N/A   Scattered Clouds
7:15 PM 87.8 °F 92.6 °F 69.8 °F 55% 29.83 in 10.0 mi SW 8.1 mph - N/A   Clear
7:35 PM 87.8 °F 92.6 °F 69.8 °F 55% 29.83 in 10.0 mi SW 6.9 mph 18.4 mph N/A   Scattered Clouds
7:55 PM 87.8 °F 92.6 °F 69.8 °F 55% 29.84 in 10.0 mi SW 6.9 mph - N/A   Clear
8:15 PM 87.8 °F 92.6 °F 69.8 °F 55% 29.84 in 10.0 mi SW 8.1 mph - N/A   Clear
8:35 PM 86.0 °F 90.4 °F 69.8 °F 58% 29.84 in 10.0 mi SW 5.8 mph - N/A   Clear
8:55 PM 86.0 °F 91.8 °F 71.6 °F 62% 29.84 in 10.0 mi SSW 6.9 mph - N/A   Clear
9:15 PM 84.2 °F 89.6 °F 71.6 °F 66% 29.84 in 10.0 mi SW 5.8 mph - N/A   Clear
9:35 PM 84.2 °F 89.6 °F 71.6 °F 66% 29.84 in 10.0 mi SW 5.8 mph - N/A   Clear
9:55 PM 82.4 °F 86.3 °F 69.8 °F 66% 29.83 in 10.0 mi SW 9.2 mph - N/A   Clear
10:15 PM 82.4 °F 87.2 °F 71.6 °F 70% 29.83 in 10.0 mi SW 9.2 mph 16.1 mph N/A   Clear
10:35 PM 82.4 °F 86.3 °F 69.8 °F 66% 29.83 in 10.0 mi SW 9.2 mph 16.1 mph N/A   Clear
10:55 PM 82.4 °F 86.3 °F 69.8 °F 66% 29.83 in 10.0 mi SW 10.4 mph - N/A   Clear
11:15 PM 82.4 °F 86.3 °F 69.8 °F 66% 29.83 in 10.0 mi SW 11.5 mph 17.3 mph N/A   Clear
11:35 PM 82.4 °F 86.3 °F 69.8 °F 66% 29.84 in 10.0 mi SW 8.1 mph - N/A   Clear
11:55 PM 80.6 °F 83.9 °F 69.8 °F 70% 29.85 in 10.0 mi SW 9.2 mph - N/A   Scattered Clouds